• In Netherlands
  • List of Countries
  • For 7 days
  • Water Temperature
  • Satellite Maps
  • Weather Map
  • Weather Widgets
  • user-avatar
    Login

    Hourly Weather Gjirokaster

    Today, 22 February, Wednesday

    Time Temperature Precipitation Wind Pressure Humidity
    00:00 -4°C° 0 mm 2 mps 650 mmHg 67%
    01:00 -4°C° 0 mm 2 mps 650 mmHg 64%
    02:00 -4°C° 0 mm 2 mps 650 mmHg 66%
    03:00 -4°C° 0 mm 2 mps 650 mmHg 67%
    04:00 -4°C° 0 mm 2 mps 650 mmHg 69%
    05:00 -4°C° 0 mm 2 mps 650 mmHg 70%
    06:00 -3°C° 0 mm 2 mps 651 mmHg 71%
    07:00 -3°C° 0 mm 2 mps 651 mmHg 72%
    08:00 +2°C° 0 mm 1 mps 652 mmHg 65%
    09:00 +4°C° 0 mm 1 mps 652 mmHg 58%
    10:00 +7°C° 0 mm 1 mps 653 mmHg 51%
    11:00 +8°C° 0 mm 1 mps 653 mmHg 51%
    12:00 +9°C° 0 mm 1 mps 653 mmHg 51%
    13:00 +9°C° 0 mm 1 mps 653 mmHg 51%
    14:00 +8°C° 0 mm 2 mps 653 mmHg 56%
    15:00 +7°C° 0 mm 2 mps 653 mmHg 61%
    16:00 +7°C° 0 mm 2 mps 653 mmHg 67%
    17:00 +6°C° 0 mm 1 mps 652 mmHg 75%
    18:00 +3°C° 0 mm 1 mps 652 mmHg 83%
    19:00 0°C° 0 mm 0 mps 652 mmHg 91%
    20:00 +1°C° 0 mm 1 mps 652 mmHg 91%
    21:00 +1°C° 0 mm 1 mps 652 mmHg 92%
    22:00 +1°C° 0 mm 1 mps 652 mmHg 92%
    23:00 0°C° 0 mm 1 mps 652 mmHg 92%

    Tomorrow, 23 February, Thursday

    Time Temperature Precipitation Wind Pressure Humidity
    00:00 -2°C° 0 mm 2 mps 652 mmHg 93%
    01:00 -2°C° 0 mm 2 mps 652 mmHg 93%
    02:00 -2°C° 0 mm 2 mps 652 mmHg 92%
    03:00 -2°C° 0 mm 2 mps 651 mmHg 92%
    04:00 -2°C° 0 mm 2 mps 651 mmHg 92%
    05:00 -2°C° 0 mm 2 mps 651 mmHg 90%
    06:00 -2°C° 0 mm 2 mps 651 mmHg 89%
    07:00 -2°C° 0 mm 3 mps 652 mmHg 87%
    08:00 +1°C° 0 mm 3 mps 652 mmHg 78%
    09:00 +3°C° 0 mm 3 mps 653 mmHg 69%
    10:00 +5°C° 0 mm 3 mps 653 mmHg 60%
    11:00 +7°C° 0 mm 3 mps 653 mmHg 59%
    12:00 +7°C° 0 mm 3 mps 653 mmHg 57%
    13:00 +8°C° 0 mm 3 mps 653 mmHg 56%
    14:00 +7°C° 0 mm 3 mps 653 mmHg 61%
    15:00 +7°C° 0 mm 3 mps 652 mmHg 65%
    16:00 +5°C° 0 mm 3 mps 652 mmHg 69%
    17:00 +4°C° 0 mm 3 mps 652 mmHg 77%
    18:00 +2°C° 0 mm 3 mps 652 mmHg 84%
    19:00 +1°C° 0 mm 3 mps 652 mmHg 92%
    20:00 0°C° 0 mm 3 mps 652 mmHg 92%
    21:00 0°C° 0 mm 3 mps 652 mmHg 93%
    22:00 0°C° 0 mm 3 mps 652 mmHg 93%
    23:00 0°C° 0 mm 3 mps 652 mmHg 93%

    Day after tomorrow, 24 February, Friday

    Time Temperature Precipitation Wind Pressure Humidity
    00:00 0°C° 0 mm 3 mps 652 mmHg 93%
    01:00 0°C° 0 mm 3 mps 652 mmHg 94%
    02:00 0°C° 0 mm 3 mps 651 mmHg 94%
    03:00 0°C° 0 mm 3 mps 651 mmHg 94%
    04:00 0°C° 0 mm 3 mps 651 mmHg 95%
    05:00 0°C° 0 mm 4 mps 651 mmHg 95%
    06:00 0°C° 0 mm 4 mps 651 mmHg 95%
    07:00 0°C° 0 mm 4 mps 651 mmHg 95%
    08:00 +1°C° 0 mm 4 mps 652 mmHg 90%
    09:00 +4°C° 0 mm 4 mps 652 mmHg 85%
    10:00 +5°C° 0 mm 5 mps 652 mmHg 79%
    11:00 +6°C° 0 mm 5 mps 652 mmHg 77%
    12:00 +6°C° 0 mm 5 mps 652 mmHg 75%
    13:00 +7°C° 0 mm 5 mps 652 mmHg 73%
    14:00 +6°C° 0 mm 5 mps 651 mmHg 75%
    15:00 +6°C° 0 mm 5 mps 651 mmHg 77%
    16:00 +6°C° 0 mm 5 mps 651 mmHg 79%
    17:00 +5°C° 0 mm 5 mps 651 mmHg 84%
    18:00 +3°C° 0 mm 5 mps 651 mmHg 88%
    19:00 +2°C° 0 mm 5 mps 651 mmHg 93%
    20:00 +1°C° 0 mm 5 mps 650 mmHg 91%
    21:00 +1°C° 0 mm 6 mps 650 mmHg 90%
    22:00 +1°C° 0 mm 6 mps 650 mmHg 88%
    23:00 +1°C° 0 mm 6 mps 650 mmHg 85%

    25 February, Saturday

    Time Temperature Precipitation Wind Pressure Humidity
    00:00 +1°C° 0 mm 6 mps 650 mmHg 82%
    01:00 +1°C° 0 mm 6 mps 649 mmHg 79%
    02:00 +1°C° 0.1 mm 5 mps 649 mmHg 79%
    03:00 +1°C° 0.1 mm 5 mps 649 mmHg 78%
    04:00 +1°C° 0.1 mm 5 mps 648 mmHg 78%
    05:00 +1°C° 0.8 mm 5 mps 648 mmHg 79%
    06:00 +2°C° 0.8 mm 5 mps 648 mmHg 80%
    07:00 +2°C° 0.8 mm 5 mps 648 mmHg 81%
    08:00 +3°C° 0.4 mm 6 mps 649 mmHg 79%
    09:00 +4°C° 0.4 mm 6 mps 649 mmHg 78%
    10:00 +5°C° 0.4 mm 6 mps 649 mmHg 76%
    11:00 +5°C° 0.5 mm 6 mps 649 mmHg 78%
    12:00 +6°C° 0.5 mm 5 mps 649 mmHg 81%
    13:00 +7°C° 0.5 mm 5 mps 649 mmHg 83%
    14:00 +7°C° 0.3 mm 5 mps 649 mmHg 84%
    15:00 +7°C° 0.3 mm 5 mps 649 mmHg 85%
    16:00 +7°C° 0.3 mm 5 mps 649 mmHg 85%
    17:00 +6°C° 0.2 mm 4 mps 649 mmHg 87%
    18:00 +5°C° 0.2 mm 4 mps 650 mmHg 90%
    19:00 +4°C° 0.2 mm 4 mps 650 mmHg 92%
    20:00 +4°C° 0.4 mm 4 mps 650 mmHg 91%
    21:00 +4°C° 0.4 mm 4 mps 651 mmHg 91%
    22:00 +4°C° 0.4 mm 4 mps 651 mmHg 91%
    23:00 +4°C° 0.6 mm 4 mps 651 mmHg 91%

    26 February, Sunday

    Time Temperature Precipitation Wind Pressure Humidity
    00:00 +3°C° 0.6 mm 3 mps 651 mmHg 92%
    01:00 +3°C° 0.6 mm 3 mps 651 mmHg 92%
    02:00 +2°C° 0.5 mm 3 mps 651 mmHg 92%
    03:00 +2°C° 0.5 mm 3 mps 651 mmHg 92%
    04:00 +1°C° 0.5 mm 3 mps 651 mmHg 92%
    05:00 +1°C° 0.1 mm 3 mps 651 mmHg 91%
    06:00 +1°C° 0.1 mm 3 mps 652 mmHg 91%
    07:00 +1°C° 0.1 mm 3 mps 652 mmHg 90%
    08:00 +4°C° 0.1 mm 2 mps 653 mmHg 83%
    09:00 +6°C° 0.1 mm 2 mps 653 mmHg 77%
    10:00 +8°C° 0.1 mm 2 mps 654 mmHg 71%
    11:00 +9°C° 0.2 mm 2 mps 654 mmHg 69%
    12:00 +9°C° 0.2 mm 2 mps 654 mmHg 67%
    13:00 +10°C° 0.2 mm 2 mps 654 mmHg 65%
    14:00 +10°C° 0.4 mm 2 mps 653 mmHg 68%
    15:00 +10°C° 0.4 mm 1 mps 653 mmHg 72%
    16:00 +9°C° 0.4 mm 1 mps 653 mmHg 76%
    17:00 +8°C° 0.3 mm 1 mps 653 mmHg 81%
    18:00 +6°C° 0.3 mm 1 mps 653 mmHg 86%
    19:00 +5°C° 0.3 mm 1 mps 653 mmHg 92%
    20:00 +4°C° 0 mm 1 mps 653 mmHg 92%
    21:00 +4°C° 0 mm 1 mps 653 mmHg 92%
    22:00 +3°C° 0 mm 1 mps 652 mmHg 92%
    23:00 +3°C° 0 mm 1 mps 652 mmHg 92%

    27 February, Monday

    Time Temperature Precipitation Wind Pressure Humidity
    00:00 +2°C° 0 mm 0 mps 652 mmHg 93%
    01:00 +1°C° 0 mm 0 mps 652 mmHg 93%
    02:00 +1°C° 0 mm 0 mps 652 mmHg 93%
    03:00 +1°C° 0 mm 0 mps 652 mmHg 93%
    04:00 +1°C° 0 mm 0 mps 652 mmHg 93%
    05:00 +2°C° 0 mm 1 mps 652 mmHg 93%
    06:00 +3°C° 0 mm 1 mps 652 mmHg 92%
    07:00 +3°C° 0 mm 1 mps 653 mmHg 92%
    08:00 +5°C° 0 mm 1 mps 653 mmHg 84%
    09:00 +8°C° 0 mm 1 mps 654 mmHg 76%
    10:00 +10°C° 0 mm 1 mps 655 mmHg 69%
    11:00 +11°C° 0 mm 1 mps 655 mmHg 66%
    12:00 +10°C° 0 mm 2 mps 654 mmHg 64%
    13:00 +12°C° 0 mm 2 mps 654 mmHg 62%
    14:00 +10°C° 0.2 mm 2 mps 654 mmHg 65%
    15:00 +10°C° 0.2 mm 2 mps 654 mmHg 69%
    16:00 +9°C° 0.2 mm 3 mps 654 mmHg 73%
    17:00 +7°C° 0 mm 2 mps 653 mmHg 80%
    18:00 +6°C° 0 mm 2 mps 653 mmHg 86%
    19:00 +4°C° 0 mm 2 mps 653 mmHg 92%
    20:00 +5°C° 0 mm 1 mps 653 mmHg 92%
    21:00 +4°C° 0 mm 1 mps 653 mmHg 92%
    22:00 +4°C° 0 mm 1 mps 653 mmHg 92%
    23:00 +3°C° 0 mm 1 mps 653 mmHg 91%
    Show more